DMSP 5D-2 F13 DEB, 40504

Orbit data source: Space-Track

DMSP 5D-2 F13 DEB, 40504 is space debris in SSO originally from a launch on Fri, 24 Mar 1995 UTC launched from the Air Force Western Test Range (AFWTR). Debris objects in space refer to the collection of defunct objects orbiting the Earth. Examples of debris include non-operational satellites, rocket bodies, and fragments generated from explosions, collisions, or faulty payload assembly.

Loading next visibility...
Identifier
40504, 1995-015CT
Orbit
SSO
Country
Flag of USUS
Related business
Manufacturer
Unknown
Mission
Spacecraft
Bus & Motor
Unknown
Mass
Unknown
Launch date (UTC)
1995-03-24 (31 years ago)
Launch vehicle
Unknown
Launch site
Air Force Western Test Range (AFWTR)
Object type
Payload
Rocket body
Debris
Shape & HBR
Unknown shape, 0.1 m
Radar Cross Section
Small (<0.1 m²)

Expand to show TLE details & history
Last TLE update: 9 hours ago

TLE from 9 hours ago
0 DMSP 5D-2 F13 DEB
1 40504U 95015CT  25343.45929416  .00005655  00000-0  26841-2 0  9994
2 40504  99.0332 341.1558 0047255 300.3191  59.3314 14.19313475552069
Epoch: 2025-12-09T11:01Z
TLE epoch observation values (Epoch: 2025-12-09T11:01:23.015Z)
Latitude
-0.00003°
Longitude
97.36624°
Altitude
813.326 km
Speed
7.456 km/s
True Right ascension
22h 44m 37s
True Declination
0° 00' 00"
Sunlit
Object was in daylight at epoch
Visualization orbit readout
Latitude
Unknown
Longitude
Unknown
Altitude
Unknown
Speed
Unknown
Apparent Right ascension
Unknown
Apparent Declination
Unknown
Sunlit
N/A
Visualization observer readout
Local Sidereal Time
18:10:01
Azimuth
Unknown
Elevation
Unknown
Doppler factor
Unknown
Orbital elements
Apogee altitude
858.888 km
Perigee altitude
790.813 km
Semi-major axis
7,202.988 km
Eccentricity
0.00473
Inclination
99.0332°
RAAN
341.1558°
Arg. of periapsis
300.3191°
True anomaly
59.79857°
Mean anomaly
59.3314°
Eccentric anomaly
59.56484°
Mean motion
3.55037 °/min
Orbital period
101.4 mins
BSTAR
0.0026841
Loading maneuver chart data...
Computing Atmospheric mass density...

Documentation

Showing up to 5 results
|